Location: Newark
(40.3500°N, 15.2333°E)
Time: 01:11:13
(UTC+00:00)

Altair - Pass Details

Date: 19 January 2020
Orbit: 1502 x 1682 km, 47.2° (Epoch: 19 February)

Event Time Altitude Azimuth Distance (km) Brightness Sun altitude
Rises 12:23:53 0° 281° (WNW) 4,935 10.3 26.9°
Reaches altitude 10° 12:27:09 10° 286° (WNW) 3,946 9.8 26.6°
Maximum altitude 12:37:11 59° 5° (N) 1,874 8.0 25.9°
Drops below altitude 10° 12:46:59 10° 84° (E) 3,859 9.4 25.2°
Sets 12:50:09 0° 88° (E) 4,821 9.8 24.9°
